www.pogodaiklimat.ru

Погода и климат >> Архив погоды >> Россия >> Волгоградская область >> Калач-на-Дону


ПОГОДА в Калаче-на-Дону

  • Прогноз погоды в Калаче-на-Дону
  • Монитор погоды в Калаче-на-Дону
  • Климат города

АРХИВ ПОГОДЫ в Калаче-на-Дону

Время (UTC), дата Ветер
(напр.,м/с)
 
Видим.   Явления Облачность Т
(С)
Тd
(С)
f
(%)
Тe
(С)
Тes
(С)
Комфортность P
(гПа)
Po
(гПа)
Тmin
(С)
Tmax
(С)
R
(мм)
R24
(мм)
S
(см)
09 18.04 Ю 4 20 км 10/6 600 м
[Cb cap Ac lent Ci]
+20.7 +8.3 45 +22 +24 комфорт 1011.1 1006.7
12 18.04 Ю 3 20 км 10/6 600 м
[Cb cap Cs]
+20.8 +8.4 45 +23 +25 комфорт 1010.5 1006.1
15 18.04 Ю 4 20 км 8/4 600 м
[Sc diur, vesp Ac cast]
+20.9 +8.6 45 +22 +23 комфорт 1009.4 1005.0 +21.5
18 18.04 штиль 0 10 км 8/8 600 м
[Sc]
+15.2 +8.8 66 +15 +15 1010.0 1005.4
21 18.04 Ю 1 10 км 10/10 600 м
[Sc]
+11.8 +7.5 75 +12 +12 1009.9 1005.3
00 19.04 СЗ 1 10 км 10/0
[As trans]
+8.6 +6.6 87 +8 +8 1009.3 1004.7
03 19.04 СВ 1 20 км 10/10 600 м
[Sc]
+7.6 +5.7 88 +7 +7 1009.4 1004.8 +7.1
06 19.04 Ю 2 20 км 10/10 600 м
[Sc]
+11.3 +9.0 86 +10 +10 1010.0 1005.4
09 19.04 З 3
{10}
20 км 10/10 600 м
[Sc]
+11.7 +4.7 62 +10 +10 1012.2 1007.6
12 19.04 ЮЗ 2 20 км {дождь} 10/10 600 м
[Sc]
+12.6 +6.1 65 +12 +12 1012.2 1007.7
15 19.04 З 4 20 км 10/10 600 м
[Sc]
+10.4 +2.9 60 +8 +8 1012.7 1008.1 +13.7 2
18 19.04 З 6-10
{14}
10 км 10/10 600 м
[Sc]
+5.9 +1.6 74 +1 +1 1013.7 1009.0
21 19.04 З 4
{12}
10 км 10/10 600 м
[Sc]
+5.8 +2.6 80 +2 +2 1013.8 1009.1
00 20.04 СЗ 5-11
{14}
10 км 10/10 600 м
[Sc]
+3.8 +1.9 87 -1 -1 1015.4 1010.7
03 20.04 СЗ 6-10
{13}
20 км 10/10 600 м
[Sc]
+1.4 -2.8 74 -5 -5 1018.2 1013.4 +1.4
06 20.04 С 6-11
{11}
20 км 10/10 600 м
[Sc]
+1.7 -3.9 66 -4 -4 1020.0 1015.2 +1.4
09 20.04 С 4
{11}
20 км 5/5 1000 м
[Cb cap]
+5.8 -3.0 53 +2 +7 1020.9 1016.2
12 20.04 С 4 20 км ясно +8.8 -2.6 45 +6 +12 1020.6 1015.9
15 20.04 СВ 4 20 км 3/0
[Ac trans]
+7.8 -3.7 44 +5 +6 1021.1 1016.4 +9.2
18 20.04 СВ 2 10 км 3/0
[Ci fib]
+2.8 -3.9 61 0 0 1022.9 1018.1
21 20.04 В 1 10 км 6/0
[Ac trans]
+1.1 -4.5 66 -0 -0 1023.2 1018.4
00 21.04 СВ 1 10 км 5/0
[Ac trans]
-0.5 -5.2 70 -2 -2 1022.0 1017.2
03 21.04 В 2 20 км 6/0
[Ac trans]
-0.1 -4.8 71 -3 -3 1022.1 1017.2 -1.1
06 21.04 ЮВ 5
{10}
20 км 10/10 600 м
[Sc]
+4.1 -4.9 52 -0 -0 1020.8 1016.0
09 21.04 ЮВ 4 20 км 10/10 600 м
[Sc]
+6.4 -3.5 49 +3 +3 1019.4 1014.7
12 21.04 ЮВ 5
{10}
20 км 10/10 600 м
[Sc]
+7.7 -2.7 48 +4 +4 1016.3 1011.7
15 21.04 ЮВ 3
{10}
20 км 10/10 600 м
[Sc]
+8.1 -1.2 52 +6 +6 1014.3 1009.6 +8.1
18 21.04 ЮВ 2 10 км слабый дождь 10/10 300 м
[Frnb Ns]
+5.8 +2.7 80 +3 +3 1013.1 1008.5
21 21.04 ЮВ 2 10 км слабый дождь 10/10 300 м
[Frnb Ns]
+5.2 +4.0 92 +2 +2 1011.1 1006.4
00 22.04 ЮЗ 2
{11}
10 км слабый дождь 10/10 300 м
[Frnb Ns]
+4.0 +2.6 91 +1 +1 1009.8 1005.1
03 22.04 ЮЗ 3 20 км {дождь} 4/4 600 м
[Sc]
+4.9 +2.7 86 +1 +2 1007.7 1003.0 +4.0 11
06 22.04 З 5-10
{10}
10 км слабый дождь 10/10 300 м
[Frnb Ns]
+5.4 +3.6 88 +1 +1 1005.6 1000.9
09 22.04 З 6-13
{13}
20 км в посл. час дождь 10/8 600 м
[Cb cap Cs]
+7.6 +3.9 77 +3 +4 1005.7 1001.0
12 22.04 З 6-11
{14}
20 км {дождь} 8/8 600 м
[Cb cap]
+9.1 +2.3 62 +6 +6 1007.4 1002.8
15 22.04 З 6
{14}
20 км 3/3 600 м
[Cb cap]
+7.7 +1.1 63 +4 +4 1010.3 1005.6 +9.8 2
18 22.04 З 5
{11}
10 км 10/10 600 м
[Sc diur, vesp]
+8.6 +3.0 68 +5 +5 1011.9 1007.2
21 22.04 З 4-10
{14}
10 км ясно +7.4 +2.8 73 +4 +4 1011.9 1007.3
00 23.04 З 5
{11}
10 км ясно +6.3 +2.1 74 +2 +2 1011.7 1007.0
03 23.04 ЮЗ 5-10
{12}
20 км 8/8 600 м
[Sc]
+5.6 +2.9 83 +1 +1 1011.9 1007.2 +5.5
06 23.04 ЮЗ 5
{12}
20 км 10/10 600 м
[Sc diur, vesp]
+8.4 +4.4 76 +5 +5 1012.2 1007.6
09 23.04 Ю 3 20 км 10/10 600 м
[Sc diur, vesp]
+10.8 +4.9 67 +9 +9 1011.5 1006.9
12 23.04 Ю 2 20 км в посл. час ливневой дождь 10/6 600 м
[Cb cap Ac und]
+9.9 +4.7 70 +9 +10 1008.7 1004.1
15 23.04 В 2 10 км слабый дождь 10/10 300 м
[Frnb Ns]
+7.0 +5.8 92 +5 +5 1006.5 1001.8 +11.6 6
18 23.04 СВ 2 10 км слабый дождь 10/10 300 м
[Frnb Ns]
+7.0 +5.7 91 +5 +5 1006.8 1002.1
21 23.04 В 4 10 км слабый дождь 10/10 300 м
[Frnb Ns]
+6.2 +5.3 94 +2 +2 1002.5 997.8
00 24.04 штиль 0 4000 м в посл. час дождь 10/10 300 м
[St]
+6.4 +5.4 93 +5 +5 999.0 994.4
03 24.04 ЮЗ 4
{11}
20 км в посл. час дождь 10/10 600 м
[Sc]
+6.8 +5.4 91 +3 +3 996.4 991.8 +6.0 13
06 24.04 СЗ 6-10
{12}
20 км в посл. час дождь 10/10 600 м
[Sc]
+7.2 +4.8 85 +3 +3 1000.4 995.8
09 24.04 СЗ 6-13
{14}
20 км 10/10 600 м
[Sc]
+9.0 +3.7 69 +5 +5 1005.3 1000.7
12 24.04 СЗ 6-10
{15}
20 км 8/8 600 м
[Cb cap]
+12.5 +1.7 48 +10 +11 1008.3 1003.8
15 24.04 ЮЗ 1
{10}
20 км {дождь} 8/6 600 м
[Cb cap Ac trans]
+11.6 +2.5 54 +12 +12 1009.4 1004.8 +13.1 0.8
18 24.04 ЮЗ 2 10 км {дождь} 10/10 600 м
[Sc]
+8.2 +5.4 82 +6 +6 1010.7 1006.1
21 24.04 ЮЗ 4
{11}
10 км {дождь} 10/10 600 м
[Sc]
+6.0 +2.4 78 +2 +2 1010.6 1006.0
00 25.04 З 4 10 км {дождь} 10/10 600 м
[Sc]
+4.4 +3.0 91 0 0 1010.9 1006.2
03 25.04 СЗ 5 20 км 10/10 600 м
[Sc]
+5.9 +4.2 89 +1 +1 1013.7 1009.0 +4.3 0.5

 

Местоположение метеостанции Калач-на-Дону (Волгоградская область, Россия): широта 48.68 долгота 43.48 высота над уровнем моря 38 м.

В архиве по умолчанию представлена погода в Калаче-на-Дону за последнюю неделю. Архивные данные за месяц целиком и за предыдущие месяцы, начиная с января 2011 года, Вы можете получить, выбрав интересующий диапазон дат из раскрывающегося списка и нажав кнопку "Ввод!".

Внимание! Время в таблицах - всемирное. Для получения местного времени необходимо прибавить поправку, которая в Калаче-на-Дону равна 3 ч.

Смотрите также архив погоды в соседних городах и на ближайших метеорологических станциях:

Погода в Нижнем Чире (Волгоградская область, Россия) (47 км)
Погода в Волгограде (Волгоградская область, Россия) (66 км)
Погода в Волгограде город (Волгоградская область, Россия) (71 км)
Погода в Иловле (Волгоградская область, Россия) (79 км)
Погода в Серафимовиче (Волгоградская область, Россия) (113 км)
Погода в Котельниково (Волгоградская область, Россия) (119 км)
Погода в Малых Дербетах (Калмыкия, Россия) (123 км)
Погода в Морозовске (Ростовская область, Россия) (124 км)
Погода в Фролове (Волгоградская область, Россия) (125 км)
Погода в Боковской (Ростовская область, Россия) (135 км)

Пояснения к столбцам:

Ветер - указаны скорость ветра в м/с - средняя за 10 мин, порывы в срок и между сроками (в фигурных скобках) и направление, откуда дует ветер: С - северный, СВ - северо-восточный, В - восточный, ЮВ - юго-восточный, Ю - южный, ЮЗ - юго-западный, З - западный, СЗ - северо-западный.
Видимость - горизонтальная дальность видимости в метрах или километрах. При видимости от 1 до 10 км при отсутствии осадков обычно наблюдается дымка, при ухудшении видимости до 1 км и менее - туман. В сухую погоду видимость может ухудшаться дымом, пылью или мглою.
Явления - указаны атмосферные явления, наблюдавшиеся в срок или в последний час перед сроком; фигурными скобками обозначены явления, наблюдавшиеся между сроками (за 1-3 часа до срока); квадратными скобками обозначены град или гололедные отложения с указанием их диаметра в мм.
Облачность - указаны через наклонную черту общая и нижняя облачность в баллах и высота нижней границы облаков в метрах; квадратными скобками обозначены формы облаков: Ci - перистые, Cs - перисто-слоистые, Cc - перисто-кучевые, Ac - высококучевые, As - высокослоистые, Sc - слоисто-кучевые, Ns - слоисто-дождевые, Cu - кучевые, Cb - кучево-дождевые. Подробнее классификацию облаков см. в Атласе облаков (PDF).
T - Температура воздуха - температура, измеренная на высоте 2 м над землей.
Td - Температура точки росы - температура, при понижении до которой содержащийся в воздухе водяной пар достигнет насыщения.
f - Относительная влажность воздуха - влажноcть воздуха, измеренная на высоте 2 м над землей.
Te - Эффективная температура - температура, которую ощущает одетый по сезону человек в тени. Характеристика душности погоды. При расчете учитывается влияние влажности воздуха и скорости ветра на теплоощущения человека.
Tes - Эффективная температура на солнце - температура, которую ощущает человек, с поправкой на солнечный нагрев. Характеристика знойности погоды. Зависит от высоты солнца над горизонтом, облачности и скорости ветра. Ночью, в пасмурную погоду, а также при ветре 12 м/с и более поправка равна нулю.
P - Атмосферное давление - приведенное к уровню моря атмосферное давление.
Po - Атмосферное давление - измеренное на уровне метеостанции атмосферное давление.
Tmin - Минимальная температура - минимум температуры воздуха на высоте 2 м над землей.
Tmax - Максимальная температура - максимум температуры воздуха на высоте 2 м над землей.
R - Количество осадков - Количество выпавших осадков за период времени, мм. При наведении курсора мыши на число - период времени, за который выпало указанное количество осадков.
R24 - Количество осадков - Количество выпавших осадков за 24 часа, мм.
S - Снежный покров - Высота снежного покрова, см. При наведении курсора мыши на число - состояние снежного покрова и степень покрытия местности в баллах.